GEFSSE_con_cape1000_150.txt.gz
Probability
10 42 100 100 100 100 100 100 100 100 100 100 100 100 100 100 100 100 100 97 94 94 94 97 100 97 100 100 100 94 94 94 97 94 94 90 90 94 94 94 87 77 87
19 65 100 100 100 100 100 100 100 100 100 100 100 100 100 100 100 100 100 100 97 97 97 97 97 97 97 100 94 94 94 94 97 94 94 94 90 90 94 84 94 87 94
29 77 100 100 100 100 100 100 100 100 100 100 100 100 100 100 100 100 100 100 97 97 97 97 97 97 97 97 94 94 94 90 94 94 94 90 77 90 90 94 94 94 94
39 77 94 100 100 100 100 100 100 100 100 100 100 100 100 100 100 100 100 100 100 94 94 97 97 97 97 97 94 94 94 94 90 90 74 61 68 94 94 94 94 94 97
61 90 100 100 100 100 100 100 100 100 100 100 100 100 100 100 100 100 100 100 97 90 90 97 97 100 97 94 94 94 94 94 74 55 55 71 90 94 94 94 94 94 94
71 87 100 100 100 100 100 100 100 100 100 100 100 100 100 100 100 100 100 100 97 97 97 97 100 97 94 94 94 90 94 74 65 26 55 71 87 94 90 90 87 87 87
55 84 100 100 100 100 100 100 100 100 100 100 100 100 100 100 100 100 100 97 97 97 97 94 97 97 97 94 94 94 81 61 19 23 35 58 84 94 90 90 87 87 84
52 84 100 100 100 100 100 100 100 100 100 100 100 100 100 100 100 100 97 97 97 97 94 94 94 94 97 97 94 90 77 48 13 10 35 71 90 94 90 90 87 87 81
45 81 100 100 100 100 100 100 100 100 100 100 100 100 100 100 100 97 100 97 97 97 100 94 87 84 90 94 84 81 58 48 10 23 29 71 84 87 87 87 87 84 77
58 74 97 94 100 100 100 100 100 100 100 100 100 100 100 100 100 97 100 100 90 94 97 87 84 81 81 84 84 81 61 35 3 10 29 74 87 87 87 87 87 81 77
74 77 84 90 100 100 97 100 100 100 100 100 100 100 100 97 77 84 84 94 90 90 90 84 81 71 74 84 84 84 68 26 10 19 42 74 90 81 81 87 84 87 81
87 84 84 87 100 94 87 97 97 100 100 97 97 97 97 94 87 71 94 90 90 87 81 84 74 71 65 71 71 77 52 19 19 26 61 77 81 87 77 74 81 81 74
94 87 84 97 100 94 90 97 97 97 100 100 100 100 100 100 94 81 94 94 100 90 81 81 65 61 58 58 68 52 29 19 26 16 52 74 74 68 68 65 74 68 74
94 94 87 97 100 94 94 97 97 94 100 100 100 100 100 97 90 84 97 90 94 94 87 65 74 65 55 55 52 48 35 35 23 35 81 71 74 71 61 65 68 58 65
97 94 90 87 90 94 94 97 97 94 97 97 100 100 100 94 94 87 97 94 68 74 77 74 58 68 61 61 48 48 32 29 26 19 68 68 71 81 71 61 61 45 55
87 90 90 90 90 90 94 94 97 94 100 90 100 100 97 94 97 90 100 100 71 71 58 65 55 71 58 55 45 42 48 42 48 45 52 77 71 77 74 65 61 61 61
94 87 90 87 87 87 87 87 90 97 100 94 97 100 97 94 100 94 81 97 71 68 87 81 61 61 61 55 45 35 52 58 42 52 45 61 68 71 77 74 65 61 55
94 94 90 81 84 84 84 87 94 90 94 87 94 97 97 90 100 100 87 81 84 81 74 77 68 48 42 39 42 32 39 65 55 52 42 58 48 48 58 81 77 58 52
90 87 84 84 84 84 84 87 87 94 94 90 87 87 94 97 87 97 84 90 84 71 61 48 55 42 42 42 42 52 35 32 55 29 35 32 45 42 45 71 68 68 42
84 84 84 84 84 84 84 87 94 97 97 90 87 87 84 90 94 90 94 94 71 68 81 68 68 61 55 52 16 13 23 23 23 26 26 23 32 26 26 29 48 55 55
94 87 81 84 81 77 77 87 90 94 87 90 94 81 84 84 87 94 77 94 87 74 71 52 55 58 45 42 29 26 19 10 13 19 19 13 6 16 19 29 45 48 52
87 84 84 87 87 87 84 84 90 87 90 77 81 87 87 77 87 74 87 87 84 90 87 71 68 52 52 42 29 29 13 13 16 3 26 23 6 16 16 19 32 45 42
84 81 74 74 81 81 81 84 71 84 74 61 71 74 77 77 77 74 84 74 81 71 68 81 74 61 42 45 26 16 6 6 10 13 6 10 19 29 13 23 23 42 39
81 77 74 74 74 71 74 61 58 58 45 48 68 74 77 74 77 74 74 81 77 68 74 61 45 58 58 39 32 26 13 13 10 6 13 10 26 35 23 3 10 29 32
71 74 74 77 74 71 74 68 65 55 48 48 55 65 68 77 74 68 71 74 77 68 65 55 61 58 52 42 29 19 19 19 10 13 13 10 6 6 16 13 16 6 23
71 68 68 77 77 71 68 61 58 55 52 45 48 45 52 58 68 65 61 77 74 68 68 71 65 61 52 48 35 29 19 13 16 19 13 10 6 6 0 13 13 19 16

GEFSSE_con_cape1000_156.txt.gz
Probability
32 71 100 100 100 100 100 100 100 100 100 100 100 100 100 100 100 100 97 100 100 100 100 100 90 90 94 100 94 90 90 94 97 94 94 97 90 90 90 90 84 77 84
42 90 100 100 100 100 100 100 100 100 100 100 100 100 100 100 100 97 97 94 94 94 97 90 90 94 100 97 94 90 94 94 97 94 94 97 90 90 87 90 87 74 94
58 87 100 100 100 100 100 100 100 100 100 100 100 100 100 100 100 100 97 94 94 94 97 94 94 90 94 94 90 90 90 94 97 97 94 65 84 94 94 90 90 94 94
52 77 100 100 100 100 100 100 100 100 100 100 100 100 100 100 100 100 100 97 94 94 94 94 94 90 87 90 90 90 90 90 97 97 71 32 52 90 94 94 94 94 94
61 94 100 100 100 100 100 100 100 100 100 100 100 100 100 100 100 100 100 100 97 97 97 97 94 97 90 87 84 81 84 87 84 77 71 74 74 90 94 94 94 94 94
97 97 100 100 100 100 100 100 100 100 100 100 100 100 100 100 100 97 100 100 94 94 100 100 97 90 90 84 71 68 68 68 81 68 81 68 77 90 87 90 87 90 94
97 97 100 100 100 100 100 100 100 100 100 100 100 100 100 100 100 100 97 97 97 94 94 97 94 94 90 74 65 65 71 77 77 65 81 68 84 90 90 90 81 84 87
100 100 100 100 100 100 100 100 100 100 100 100 100 100 100 100 97 97 94 97 97 94 94 94 97 94 84 77 65 61 74 74 61 68 81 77 90 90 90 87 81 81 74
90 100 100 100 100 100 100 100 100 100 100 97 100 100 100 100 97 97 94 97 97 94 84 84 87 87 87 71 61 52 55 84 52 71 58 71 90 90 87 81 81 77 74
94 94 100 100 100 100 100 100 100 100 100 97 97 100 100 100 97 97 100 100 97 94 81 81 84 77 84 74 61 52 68 68 45 48 55 74 90 90 84 77 81 81 74
90 94 90 100 100 100 100 100 100 100 100 100 100 100 100 97 94 97 100 100 94 84 77 77 77 74 77 74 68 61 61 39 35 52 52 84 87 87 84 81 77 68 68
84 81 87 100 100 100 94 97 97 100 100 100 100 100 100 100 100 97 97 97 90 87 81 81 77 77 71 52 58 77 52 39 42 39 52 94 90 87 81 81 71 61 61
84 81 84 97 97 97 97 97 97 97 100 100 100 100 100 100 100 97 94 94 97 90 90 87 84 61 71 77 74 68 48 39 23 19 55 94 90 90 77 68 61 68 58
77 81 84 97 97 94 94 94 94 94 94 97 100 100 100 100 100 97 97 94 97 94 97 94 97 77 84 84 77 65 55 39 45 45 55 90 90 87 81 71 55 58 68
97 90 94 97 94 90 94 94 94 94 94 94 100 100 100 97 100 100 97 97 97 97 97 100 97 84 84 84 81 74 48 58 65 39 55 84 84 84 81 71 65 58 52
97 97 97 97 90 90 90 94 94 94 94 94 97 97 100 97 100 100 97 100 97 97 97 97 97 87 87 94 94 84 68 65 74 71 48 65 87 84 81 74 55 61 55
100 100 97 94 90 90 90 90 94 90 90 94 90 100 100 100 100 100 97 97 97 97 97 97 97 90 90 84 87 87 77 77 71 81 71 55 58 74 81 87 77 74 55
100 97 97 90 87 87 87 87 90 94 90 94 97 100 100 100 100 100 100 97 97 97 97 97 97 94 94 90 90 87 68 81 87 84 77 68 65 39 61 77 87 81 68
100 97 97 90 90 90 90 87 94 94 90 94 97 100 100 100 100 100 97 97 97 97 90 90 97 97 94 87 90 87 74 74 81 55 68 74 61 65 35 55 84 84 74
100 94 94 90 90 90 90 87 90 90 90 97 97 100 100 97 97 97 97 97 97 97 100 94 90 94 94 87 42 55 68 65 68 61 55 45 58 48 42 35 52 52 74
100 94 94 90 90 90 90 87 84 84 87 90 94 90 97 94 97 100 90 97 100 97 94 90 90 90 81 81 74 65 61 48 65 68 61 52 52 48 52 52 29 39 26
97 94 94 94 90 90 90 90 87 81 77 77 84 90 97 97 100 90 97 90 87 94 94 94 90 87 77 74 68 65 39 45 61 19 65 58 42 42 45 48 55 65 45
97 94 90 94 90 90 87 90 84 87 81 81 87 90 87 90 94 94 87 87 84 90 94 94 90 74 74 61 65 65 39 26 42 45 42 39 48 45 45 48 55 68 65
94 94 90 90 87 90 87 87 77 74 71 71 81 81 84 87 87 90 81 84 87 84 90 90 81 84 71 65 65 68 58 48 32 29 42 42 58 52 35 23 26 45 52
87 90 90 90 90 90 90 87 81 77 74 77 77 77 77 77 87 90 87 87 90 90 94 94 84 84 71 65 61 65 65 61 39 29 19 29 32 42 39 45 42 45 45
81 81 84 87 90 90 90 84 81 87 81 71 68 65 65 81 84 87 87 90 90 94 94 87 81 77 77 77 84 81 77 58 39 39 26 26 16 29 35 42 45 48 52

GEFSSE_con_cape1000_162.txt.gz
Probability
74 94 100 97 100 100 100 100 100 100 100 100 100 100 100 100 100 100 100 100 100 100 100 97 100 100 100 100 97 90 94 94 90 94 94 94 90 90 90 84 77 65 90
87 94 100 100 100 100 100 100 100 100 100 100 100 100 100 100 100 100 100 100 100 100 97 97 97 97 97 90 94 94 97 97 97 94 94 94 90 90 87 90 84 74 90
87 94 100 100 100 100 100 100 100 100 100 100 100 100 100 100 100 100 100 100 97 97 97 90 87 90 94 90 94 97 97 97 97 94 90 58 81 87 94 94 94 90 87
94 97 100 100 100 100 100 100 100 100 100 100 100 100 100 100 100 100 100 100 100 97 97 81 87 87 94 94 97 97 97 97 97 68 16 45 65 90 94 94 94 90 84
90 97 100 100 100 100 100 100 100 100 100 100 100 100 100 100 100 100 100 100 100 94 94 90 84 87 90 94 97 97 97 90 87 52 19 26 65 94 94 94 87 84 81
94 100 100 100 100 100 100 100 100 100 100 100 100 100 100 100 100 100 100 100 100 97 97 90 87 84 87 84 90 87 90 81 45 29 29 42 74 94 94 90 90 87 84
94 100 100 100 100 100 100 100 100 100 100 100 100 100 100 100 100 100 100 100 100 97 94 94 87 84 81 81 84 81 84 77 13 13 32 42 81 94 90 87 87 87 84
100 100 100 100 100 100 100 100 100 100 100 100 100 100 100 100 100 97 97 97 97 97 97 94 87 81 81 81 87 77 84 74 39 16 35 52 90 90 90 90 87 87 81
97 100 100 100 100 100 100 100 100 100 100 100 100 100 100 100 100 97 97 94 94 94 94 84 84 84 84 81 74 77 84 81 13 13 32 58 90 90 84 84 84 84 77
94 97 100 100 100 100 100 100 100 100 100 100 100 100 100 100 100 97 97 94 94 94 90 87 81 81 84 81 74 77 74 52 6 19 23 68 87 84 81 77 81 81 81
90 94 94 94 94 100 100 100 100 100 100 100 100 100 100 97 94 97 94 94 94 94 90 90 84 77 81 77 74 81 42 6 6 13 26 77 84 84 84 77 74 74 77
84 84 87 90 90 94 97 97 97 100 100 100 97 97 90 74 74 90 94 97 94 94 94 90 90 87 68 16 16 52 3 3 10 13 35 94 84 81 84 81 77 74 71
77 87 84 84 84 87 87 90 94 94 94 94 87 84 68 65 68 68 74 94 81 84 65 74 74 48 26 10 6 3 0 0 3 16 39 97 87 81 77 74 71 71 65
84 87 90 77 81 77 77 84 87 81 87 84 77 77 58 52 45 39 42 52 58 39 29 35 23 19 16 10 6 3 0 0 3 23 39 97 90 84 84 77 74 74 65
71 81 81 77 74 74 71 71 87 68 74 77 81 71 52 45 29 32 35 32 32 16 19 16 13 13 13 6 6 6 3 6 6 16 39 87 90 90 87 84 81 71 68
71 74 71 68 71 74 81 74 81 74 81 65 71 74 55 42 32 26 26 29 19 19 16 19 13 16 10 6 0 3 6 6 6 13 29 65 94 94 87 84 81 81 68
65 71 71 68 77 71 74 81 84 81 84 65 68 77 61 48 26 23 26 23 19 16 16 13 13 6 10 6 6 3 0 3 3 16 16 29 55 94 94 90 84 71 68
71 71 74 77 71 74 71 84 77 81 74 71 68 65 58 45 32 16 19 19 23 23 16 19 6 3 3 0 0 3 6 6 6 10 16 19 19 39 65 94 87 87 77
74 77 77 84 81 81 68 71 77 77 77 71 71 58 45 45 32 26 23 23 26 16 6 16 10 10 6 0 3 0 0 0 6 3 6 10 6 3 6 52 84 87 81
74 74 71 77 81 77 74 71 71 71 71 68 61 55 55 55 42 29 23 23 19 16 10 10 10 10 3 0 3 3 0 0 0 3 0 0 3 3 0 3 35 68 81
81 87 77 77 81 74 77 74 71 65 58 61 58 65 55 48 39 35 45 26 16 19 10 10 10 10 3 0 3 0 0 0 0 0 0 0 0 3 0 0 0 3 16
94 90 87 84 84 77 74 68 58 65 52 48 48 52 52 58 45 35 32 23 19 16 10 10 10 6 6 3 0 0 0 0 0 0 0 0 0 0 3 0 0 0 0
84 84 87 87 84 84 74 65 52 55 52 45 39 48 45 52 48 32 23 26 19 16 10 6 6 6 6 3 0 0 0 0 0 0 0 0 0 0 0 0 0 0 0
84 84 84 81 77 74 74 68 58 55 48 35 35 29 39 45 52 35 26 19 16 13 10 6 3 3 3 0 0 0 0 0 0 0 0 0 0 0 0 0 0 0 0
77 77 74 74 77 65 65 61 48 45 32 23 19 26 23 26 32 39 23 19 16 6 6 6 3 3 3 3 0 0 0 0 0 0 0 0 0 0 0 0 0 0 0
77 77 71 71 68 68 61 58 48 39 29 26 19 23 19 16 23 29 23 10 6 6 6 6 6 3 3 3 0 0 0 0 0 0 0 0 0 0 0 0 0 0 0

GEFSSE_con_cape1000_168.txt.gz
Probability
32 77 97 97 97 97 100 100 100 100 100 100 100 100 100 100 100 100 100 100 97 100 100 97 97 90 90 94 94 94 94 94 90 87 87 90 94 94 94 94 81 71 87
52 87 97 97 97 100 100 100 100 100 100 100 100 100 100 100 100 100 100 100 100 100 97 97 97 97 97 97 97 94 90 90 90 90 94 94 90 84 90 87 81 77 90
65 90 97 100 100 100 100 100 100 100 100 100 100 100 100 100 100 100 100 100 97 97 97 97 97 97 100 97 97 94 94 97 94 90 81 68 81 90 90 81 84 87 87
74 84 94 100 100 100 100 100 100 100 100 100 100 100 100 100 100 100 97 100 100 94 94 90 94 97 97 97 97 97 97 94 90 81 52 55 74 84 84 84 87 90 90
71 81 100 100 100 100 100 100 100 100 100 100 100 100 100 100 100 97 97 94 97 94 87 90 94 97 97 97 97 97 94 87 81 58 32 58 81 94 84 81 84 87 90
84 94 100 100 100 100 100 100 100 100 100 100 100 100 100 100 100 97 97 97 97 87 87 94 94 97 97 94 90 97 90 87 58 26 42 58 77 94 84 77 77 87 90
84 94 100 100 100 100 100 100 100 100 100 100 100 100 100 100 100 97 97 97 97 94 90 94 94 94 90 87 90 90 87 77 29 35 42 61 84 94 84 74 74 74 90
84 97 100 100 100 100 100 100 100 100 100 100 100 100 100 100 100 97 97 94 97 90 94 90 87 90 90 84 77 81 84 58 42 32 45 58 87 90 81 81 77 74 81
90 97 100 100 100 100 100 100 100 100 100 100 100 100 100 100 100 97 97 97 94 87 87 87 81 81 87 84 77 77 84 61 16 35 39 68 90 90 84 81 77 74 74
87 94 94 97 100 100 100 100 100 100 100 100 100 100 100 100 97 97 97 100 97 90 84 84 77 81 81 84 77 74 81 48 16 26 45 71 90 84 84 81 77 77 77
87 87 84 94 97 100 100 100 100 100 100 100 100 100 100 94 97 97 97 97 94 87 84 77 81 81 81 74 81 81 55 13 16 19 42 71 84 84 77 81 81 77 74
87 87 84 90 90 90 97 97 100 100 100 100 97 94 77 77 74 90 97 97 97 90 87 84 81 81 45 26 55 55 10 10 19 23 35 77 84 77 74 77 71 77 71
81 87 87 87 90 87 87 94 94 94 90 97 90 84 58 45 65 74 71 77 71 77 65 65 55 39 35 23 16 10 6 16 13 23 35 74 84 77 74 77 68 65 71
68 87 87 84 84 84 84 90 87 77 74 71 71 68 52 39 45 48 52 55 48 35 29 29 23 16 16 10 10 10 6 19 13 26 32 71 84 84 68 65 58 58 65
71 74 84 81 77 77 71 77 84 71 65 58 52 45 39 35 35 29 32 26 29 23 13 10 10 13 10 10 10 13 6 16 13 23 32 65 84 84 77 65 61 58 61
48 58 68 77 77 71 65 68 71 65 58 52 45 39 35 32 26 19 16 16 16 16 6 6 10 10 6 3 3 10 13 16 16 23 29 45 90 87 87 81 71 65 61
45 45 55 65 68 61 55 55 61 52 52 55 48 35 39 26 19 13 10 6 10 13 6 6 3 3 3 3 3 6 6 13 10 13 26 39 52 90 87 94 90 81 71
45 35 45 65 61 58 45 42 48 52 61 52 45 39 42 39 19 10 10 10 6 10 6 6 3 3 3 3 0 0 3 6 10 16 19 26 35 42 68 84 94 94 74
61 39 39 42 52 42 42 35 39 48 58 45 35 35 35 35 19 10 10 10 10 3 3 6 0 3 3 0 0 0 0 0 3 6 13 16 26 32 32 39 74 84 61
52 48 42 48 45 32 35 29 26 35 48 48 32 26 26 29 23 10 10 10 6 3 6 3 10 3 0 0 0 0 0 0 0 0 3 10 10 10 6 10 32 48 65
58 42 45 42 39 35 39 39 35 35 35 32 32 29 23 23 23 16 10 10 10 10 6 6 6 6 6 0 0 0 0 0 0 0 0 3 0 0 6 0 0 10 26
52 48 48 39 35 35 35 39 39 35 29 29 35 32 29 26 26 19 10 10 13 13 10 6 6 6 6 3 3 0 3 0 0 0 0 0 0 0 0 0 0 3 3
48 52 52 39 42 35 32 29 42 29 26 19 26 32 26 29 19 19 13 6 6 10 10 6 6 6 6 3 3 3 3 0 0 0 0 0 0 0 0 0 0 0 0
42 39 42 42 48 45 32 35 39 42 35 32 29 26 23 23 29 19 13 6 6 10 10 6 6 6 6 3 3 0 0 0 0 0 0 0 0 0 0 0 0 0 0
48 42 39 42 48 42 39 39 39 35 32 19 13 13 13 16 19 16 16 13 6 6 6 6 6 6 6 6 6 0 0 0 0 0 0 0 0 0 0 0 0 0 0
45 55 45 45 42 39 42 39 39 32 19 10 6 10 10 10 16 13 19 10 6 10 6 6 6 6 6 3 3 0 0 0 0 0 0 0 0 0 0 0 0 0 0

GEFSSE_con_cape1000_174.txt.gz
Probability
10 19 97 97 97 97 97 97 97 97 97 100 100 100 100 100 97 97 100 97 94 100 97 97 97 94 97 94 97 97 94 90 87 87 87 87 87 84 90 87 81 55 90
16 32 97 97 97 97 100 97 97 97 100 100 100 100 100 100 97 97 97 97 90 94 94 97 97 97 97 97 97 97 97 94 90 90 90 90 87 81 94 81 87 74 90
23 42 94 97 100 100 100 100 100 100 100 100 100 100 100 100 100 100 97 94 94 97 97 100 100 100 100 100 97 97 94 94 90 87 84 68 77 84 87 84 87 87 81
29 48 81 97 100 100 100 100 100 100 100 100 100 100 100 100 100 97 97 94 94 94 94 100 100 100 97 97 97 97 97 97 84 87 58 55 65 81 84 87 84 84 81
42 71 97 100 100 100 100 100 100 100 100 100 100 100 100 100 100 97 94 94 94 94 94 100 97 90 97 97 94 94 94 90 81 58 55 61 81 84 87 87 84 81 84
48 65 97 100 100 100 100 100 100 100 100 100 100 100 97 97 97 97 97 94 94 94 94 87 90 94 97 94 94 90 87 84 58 29 48 55 87 87 87 84 84 81 77
42 65 87 100 100 100 100 100 100 100 100 100 100 100 100 97 97 97 94 87 94 94 94 94 94 94 97 94 87 87 77 55 19 26 45 52 84 84 84 87 81 77 74
35 52 94 100 100 100 100 100 100 100 100 100 100 100 100 100 100 97 97 100 97 97 94 90 94 87 87 81 81 77 65 48 10 6 32 61 87 87 77 81 84 84 84
39 58 87 90 100 100 100 100 100 100 100 100 100 100 100 100 100 100 97 100 94 94 94 90 84 81 84 71 74 74 48 52 19 23 26 71 81 81 81 77 77 81 77
45 52 84 81 100 97 97 100 100 100 100 100 100 100 100 100 100 100 97 97 90 90 84 84 81 77 77 71 68 77 48 35 6 16 29 65 77 77 68 68 77 71 68
65 68 58 68 94 87 81 94 100 100 100 100 100 100 100 87 77 87 90 97 90 87 84 81 81 81 77 74 74 77 52 13 10 19 45 68 74 71 71 77 74 71 65
74 71 65 77 94 84 74 97 100 97 100 100 97 90 90 90 90 74 94 90 90 77 77 87 84 58 58 61 65 58 32 16 23 13 45 84 74 71 65 68 81 74 65
74 74 74 87 97 87 84 94 94 94 100 90 97 97 94 81 84 81 90 94 94 81 77 81 61 42 39 48 45 29 16 13 13 16 39 71 71 65 61 55 68 61 55
71 65 74 90 94 94 90 84 97 90 100 97 97 94 90 77 87 84 90 74 74 87 90 68 68 52 52 48 39 42 32 26 19 42 77 68 68 55 52 55 58 55 55
81 77 81 94 94 100 100 100 84 97 90 94 97 90 87 77 74 71 90 90 71 68 84 74 65 68 55 55 42 32 48 39 32 29 61 81 68 68 55 48 42 48 55
81 84 84 97 97 100 100 100 90 94 100 84 87 94 90 84 84 84 97 90 74 65 61 65 58 68 52 45 45 39 52 45 61 58 35 74 74 74 65 58 55 45 45
90 87 90 94 97 97 100 94 87 87 84 84 97 97 94 84 90 90 90 94 81 87 81 87 65 61 55 45 42 39 55 52 52 48 42 48 65 77 81 74 65 68 52
87 94 94 84 94 97 100 100 90 87 81 81 87 90 90 87 87 90 90 77 81 77 81 84 68 58 55 52 52 42 48 68 55 58 52 55 65 65 74 84 74 74 71
97 97 100 94 94 94 97 100 94 84 84 81 84 84 84 87 87 84 84 87 90 81 71 68 71 65 58 61 42 55 52 45 52 39 35 32 42 61 65 81 77 77 74
97 97 97 97 97 97 97 97 90 94 90 81 81 84 87 87 84 81 81 90 81 84 84 84 74 81 77 81 26 29 39 35 45 52 55 45 45 35 42 45 71 77 68
97 97 97 97 97 97 94 94 94 94 90 90 90 77 81 87 84 90 81 94 90 77 81 71 74 68 74 68 45 35 29 32 39 58 52 48 35 35 45 55 52 55 65
97 97 94 94 97 97 94 94 97 97 94 94 90 84 77 77 74 74 84 77 77 84 84 81 84 65 45 58 52 42 23 16 58 19 42 55 48 45 42 45 58 74 61
97 94 90 94 94 94 94 94 90 94 90 87 90 90 84 84 81 81 81 74 77 81 84 87 90 77 68 61 58 52 16 19 29 26 39 35 45 55 42 39 45 52 55
94 90 90 87 87 94 90 87 90 90 87 90 87 90 84 77 74 74 71 74 71 74 87 84 81 81 87 68 71 71 42 23 32 29 16 26 39 55 48 42 35 55 52
87 87 87 77 87 87 84 87 84 84 81 84 90 87 84 77 74 71 81 77 77 71 84 87 87 97 81 81 68 71 61 58 35 29 26 29 29 32 35 42 35 52 55
84 84 81 84 84 84 84 81 84 84 84 81 84 90 74 77 81 74 68 71 71 74 81 90 90 87 87 87 84 65 58 58 52 45 32 35 39 19 26 35 39 35 45

GEFSSE_con_cape1000_180.txt.gz
Probability
26 71 97 97 97 97 97 97 100 100 100 100 100 100 100 100 97 97 97 97 100 100 94 90 87 94 94 100 100 94 94 94 90 90 87 84 84 87 87 84 81 45 74
39 81 97 97 97 97 97 100 100 100 100 100 100 100 100 100 97 94 94 94 90 97 94 94 94 94 94 94 97 97 97 94 94 90 87 84 84 77 77 77 71 65 81
48 87 94 97 100 100 100 100 100 100 100 100 100 100 100 97 94 90 94 94 94 97 97 97 97 97 97 94 94 97 90 90 87 94 90 48 65 81 84 74 77 77 87
58 87 94 100 100 100 100 100 100 100 100 100 100 100 100 97 97 94 94 90 90 94 100 100 100 100 100 97 97 94 90 90 87 87 65 39 48 81 84 81 77 74 81
81 94 100 100 100 100 100 100 100 100 100 100 100 100 100 100 97 94 94 90 94 97 100 100 100 94 94 97 94 90 90 81 90 77 55 55 61 84 84 84 71 74 84
87 90 100 100 100 100 100 100 100 100 100 100 97 97 97 97 94 94 90 94 97 97 100 97 94 94 94 90 84 84 74 77 74 52 74 61 68 87 84 84 77 71 87
68 90 100 100 100 100 100 100 100 100 100 100 100 97 97 97 97 94 90 90 94 94 97 90 90 94 90 84 65 58 65 71 68 55 58 61 77 90 87 84 81 84 81
77 90 100 100 100 100 100 100 100 100 100 100 100 100 100 94 97 97 90 94 94 97 100 90 90 81 81 65 58 65 71 74 65 55 58 65 87 90 84 81 74 74 71
71 90 97 100 100 100 100 100 100 100 100 100 100 100 100 100 100 100 97 97 97 94 90 81 77 77 68 52 48 48 68 87 58 52 39 65 84 84 84 84 77 68 71
65 81 87 97 100 100 100 100 100 100 100 100 100 100 100 100 100 100 97 97 90 87 84 81 81 74 68 48 39 42 81 84 29 35 42 65 87 81 84 81 71 61 58
65 74 84 97 97 97 100 100 100 100 100 100 100 100 100 97 94 100 97 94 87 87 81 77 81 74 74 68 68 77 77 45 29 39 32 71 87 84 81 74 74 68 58
61 61 74 90 94 90 90 100 100 100 100 100 100 100 100 100 100 84 97 100 87 84 84 84 77 74 65 55 58 74 61 45 23 32 42 90 84 71 71 65 71 65 65
58 68 65 94 97 87 97 100 100 100 100 100 100 100 100 100 90 90 94 90 94 84 81 87 81 65 81 87 84 68 52 29 13 26 42 90 84 74 65 58 68 68 61
74 65 68 90 97 100 100 97 97 100 97 100 100 94 100 100 100 100 100 97 100 97 97 87 94 84 81 71 68 65 55 55 35 32 48 90 84 74 61 55 58 55 61
81 71 87 97 100 100 100 100 100 97 94 94 97 97 100 100 100 97 100 100 100 100 97 97 94 97 87 74 81 65 58 58 68 58 45 84 77 77 58 42 58 55 52
87 87 97 97 100 100 100 100 100 97 97 94 97 100 97 100 100 100 100 97 97 97 97 97 90 94 90 90 94 74 65 68 77 71 48 74 84 77 71 55 52 48 52
97 97 100 100 100 100 100 100 100 97 97 97 97 100 97 97 100 100 100 97 97 97 94 90 84 94 94 90 90 90 81 81 74 87 77 61 61 74 77 71 71 61 55
94 97 97 81 97 100 100 100 100 94 97 97 100 94 100 100 97 100 100 100 97 97 94 94 97 97 90 94 94 90 87 90 77 81 84 84 68 39 58 84 77 74 68
97 97 97 94 94 94 97 100 100 97 100 97 97 97 94 90 90 90 100 97 97 97 97 87 87 90 94 94 90 94 94 87 77 61 77 81 77 74 58 48 90 87 84
97 97 97 94 94 94 94 94 100 100 97 97 97 94 90 90 87 90 90 94 94 97 97 97 94 87 94 94 68 74 87 90 81 77 68 58 65 68 61 52 55 61 90
97 97 94 94 94 94 94 94 97 97 97 97 97 97 94 94 87 94 84 94 94 90 94 94 87 90 90 90 84 77 84 81 81 81 74 74 55 55 68 77 45 35 35
97 97 94 94 94 94 94 94 94 94 97 97 100 97 97 97 87 74 84 81 84 94 90 87 94 97 90 74 77 74 65 58 81 48 77 71 61 71 55 61 55 68 65
94 94 94 94 94 90 90 94 90 94 97 97 94 97 97 100 90 74 81 77 74 77 87 87 90 87 74 81 71 71 52 35 55 71 68 65 74 81 65 65 77 74 65
90 94 94 94 94 94 90 87 90 94 87 94 94 87 90 87 84 87 84 77 81 71 77 81 84 77 74 68 74 77 68 68 48 45 52 55 68 71 65 42 48 55 52
90 94 94 94 94 94 94 94 97 87 87 87 94 87 84 84 81 81 81 81 77 77 77 81 87 87 77 68 65 65 55 65 52 42 19 42 55 61 65 61 55 55 48
90 94 90 97 94 94 94 94 94 87 87 84 87 84 84 84 81 71 68 65 77 74 74 77 84 87 87 77 77 81 68 61 48 32 29 29 35 39 39 52 52 58 48

GEFSSE_con_cape1000_186.txt.gz
Probability
71 90 97 97 97 100 100 100 100 100 100 100 100 100 100 100 100 100 100 97 97 94 90 90 97 97 97 97 97 97 97 90 94 90 90 90 87 77 77 81 65 52 81
71 97 97 97 97 100 100 100 100 100 100 100 100 100 100 100 100 100 97 97 97 97 94 94 94 94 94 97 100 97 90 87 90 90 87 87 87 84 81 71 65 65 77
81 97 97 97 97 100 100 100 100 100 100 100 100 100 100 100 100 100 100 97 97 97 97 97 97 100 94 94 94 97 90 90 90 84 74 48 71 84 81 71 77 81 81
81 87 97 100 100 100 100 100 100 100 100 100 100 100 100 100 97 97 94 94 97 97 97 97 97 90 94 94 94 97 94 94 87 77 19 42 55 71 81 81 84 81 77
74 84 100 100 100 100 100 100 100 100 100 100 100 100 100 100 100 97 97 94 97 100 100 97 97 94 94 94 97 94 90 87 77 32 16 26 45 81 74 81 81 84 74
84 94 100 100 100 100 100 100 100 100 100 100 100 100 100 100 100 94 97 94 100 100 100 97 90 90 90 90 94 94 81 74 45 19 16 26 55 74 74 81 81 81 77
87 97 100 100 100 100 100 100 100 100 100 100 100 100 100 100 100 100 100 100 100 97 97 94 90 94 94 90 84 81 84 81 23 13 10 29 65 87 77 77 77 77 81
90 100 100 100 100 100 100 100 100 100 100 100 100 100 100 100 100 100 100 100 97 97 94 87 81 81 84 77 77 84 84 77 35 13 10 39 84 90 81 74 68 68 71
87 100 100 100 100 100 100 100 100 100 100 100 100 100 100 97 97 100 100 100 100 97 97 77 74 71 71 74 71 71 84 74 13 19 13 45 87 87 81 77 74 65 65
81 90 100 100 100 100 100 100 100 100 100 100 100 100 100 100 100 100 97 100 100 97 87 77 71 68 68 65 68 77 94 52 13 16 10 61 90 87 74 77 68 68 65
68 81 84 90 94 94 97 100 100 100 100 100 100 100 100 94 94 97 97 100 97 90 84 81 71 68 74 68 77 81 65 10 6 13 10 74 87 84 77 77 65 65 65
55 71 74 77 81 84 94 100 97 100 97 97 94 97 81 61 48 84 100 97 97 87 87 87 84 84 65 19 29 52 19 6 10 6 29 81 90 90 84 77 77 71 65
48 61 68 77 77 65 65 84 77 74 81 87 77 68 61 52 48 58 61 77 77 81 52 71 77 48 39 10 3 6 6 3 6 10 35 90 90 84 81 81 77 61 55
42 52 55 77 68 65 58 68 74 74 71 68 68 55 48 45 48 45 35 48 45 39 29 19 23 16 13 6 6 3 3 3 6 6 26 84 81 84 77 74 71 61 61
42 48 55 65 61 55 61 68 77 65 74 65 61 52 48 42 48 35 35 35 32 32 19 13 16 13 10 6 6 6 0 0 0 3 10 81 74 84 81 81 81 58 58
29 45 55 65 61 68 71 61 68 65 68 58 61 58 52 52 42 32 32 35 39 29 23 16 10 6 3 6 6 6 3 3 0 3 6 45 84 87 84 81 77 65 55
35 55 58 71 61 74 77 71 61 58 65 52 58 65 58 48 35 42 39 29 26 16 16 19 16 6 10 10 10 6 3 0 0 3 3 3 39 77 84 77 74 81 71
52 65 68 81 77 81 77 71 68 61 52 52 42 52 48 42 32 35 29 32 23 19 16 10 16 16 16 10 6 6 3 0 3 3 6 0 0 16 55 84 81 81 77
61 65 71 81 74 81 77 71 68 58 68 52 45 35 39 48 42 26 29 26 29 29 23 16 10 13 13 6 3 0 0 0 3 3 3 3 3 6 0 32 84 81 81
58 61 68 77 71 74 81 68 68 65 58 58 58 45 48 45 52 29 23 23 26 19 16 13 19 13 3 0 6 3 0 0 0 0 0 0 3 3 3 6 10 45 81
58 61 71 77 81 81 84 68 58 61 58 52 52 48 45 35 35 39 35 29 26 19 19 19 19 13 13 6 0 0 0 0 0 0 0 0 0 3 3 6 6 6 13
68 71 71 81 81 81 77 71 65 58 55 52 52 45 42 42 45 48 23 19 23 23 19 16 16 10 10 3 3 0 0 0 0 0 0 0 0 0 3 3 3 3 0
71 81 81 84 84 77 81 71 71 65 58 48 39 35 32 32 32 35 26 23 16 16 16 19 16 13 3 3 3 0 0 0 0 0 0 0 0 0 0 0 0 3 3
71 77 77 81 84 71 74 74 68 58 52 39 35 29 29 29 32 29 26 26 19 19 19 19 19 16 6 6 3 0 0 0 0 0 0 0 0 0 0 0 0 3 3
68 74 74 74 71 74 74 74 65 52 42 29 29 23 23 26 26 29 26 26 23 23 19 16 13 13 10 10 3 3 0 0 0 0 0 0 0 0 0 0 0 0 0
65 71 61 68 71 74 74 74 58 52 52 39 32 23 23 26 29 29 35 26 23 23 16 13 6 6 3 3 3 3 0 0 0 0 0 0 0 0 0 0 0 0 0

GEFSSE_con_cape1000_192.txt.gz
Probability
35 71 97 94 94 100 100 100 100 100 100 100 100 100 100 97 97 97 94 94 90 90 90 90 87 84 87 94 94 90 84 84 84 84 84 81 74 77 81 84 61 42 77
55 84 97 100 100 100 100 100 100 100 100 100 100 100 100 100 100 100 94 90 90 84 90 94 94 94 97 97 94 90 87 90 84 81 74 77 81 81 74 65 48 42 74
71 84 97 100 100 100 100 100 100 100 100 100 100 100 100 100 100 100 97 94 90 90 94 90 90 94 97 97 94 87 84 87 84 81 65 58 71 77 77 61 65 68 71
74 84 87 100 100 100 100 100 100 100 100 100 100 100 100 97 97 97 97 97 97 97 97 90 90 94 94 97 94 90 84 81 81 65 45 48 58 74 71 74 71 61 58
71 81 94 100 100 100 100 100 100 100 100 100 100 100 100 97 97 97 94 100 97 97 94 90 94 94 94 97 94 90 84 81 81 42 42 48 68 81 77 71 68 61 65
71 87 100 100 100 100 100 100 100 100 100 100 100 100 100 97 97 97 97 100 100 97 97 94 94 90 94 90 90 90 84 81 35 26 32 45 61 84 74 65 68 68 68
68 97 100 100 100 100 100 100 100 100 100 100 100 100 100 100 100 97 97 100 100 97 94 94 90 90 90 87 94 87 87 74 19 23 26 39 65 90 71 74 71 71 74
81 94 97 97 100 100 100 100 100 100 100 100 100 100 100 100 100 100 100 100 97 100 94 90 87 87 77 84 81 87 84 45 23 16 26 45 77 84 77 77 71 71 58
87 90 94 97 97 100 100 100 100 100 100 100 100 100 100 100 100 100 100 97 97 97 97 87 84 77 77 74 81 81 81 52 10 13 16 48 81 87 74 71 65 65 58
84 87 90 90 94 97 94 100 100 100 100 100 100 100 97 97 97 97 97 100 97 94 87 84 84 77 77 77 81 87 84 52 13 16 19 45 77 81 68 61 61 58 55
77 81 87 81 87 90 97 97 100 100 100 100 100 100 94 68 68 90 97 97 90 90 84 81 81 71 77 74 77 87 61 13 16 13 19 55 74 81 68 71 61 61 61
77 77 74 74 77 84 90 90 84 90 84 84 81 71 52 35 42 77 90 90 87 84 81 84 84 74 52 45 52 45 10 10 16 23 32 58 84 74 74 68 65 58 55
35 74 68 68 61 68 71 61 61 58 58 65 61 52 42 26 29 42 42 48 65 65 42 48 52 48 39 23 13 10 3 6 13 26 39 71 77 71 74 68 58 55 48
19 48 61 58 52 48 52 61 52 48 42 45 42 32 29 26 16 16 16 26 26 29 32 26 19 19 13 6 6 6 6 10 3 13 32 65 81 77 65 61 61 65 55
6 26 39 48 48 42 35 39 52 45 42 39 32 35 32 23 16 13 16 6 19 13 16 13 10 10 13 10 6 6 10 13 10 13 26 48 74 81 68 58 55 58 52
10 13 19 29 32 32 29 32 29 32 39 35 35 32 26 19 13 10 6 13 13 16 10 10 6 6 6 10 10 3 6 6 3 3 10 39 74 74 77 71 65 58 55
13 19 23 23 19 19 16 23 32 23 35 29 35 32 29 23 16 13 13 13 10 10 10 10 3 3 3 6 10 6 3 3 3 6 6 16 32 71 71 74 71 71 58
19 23 26 29 26 23 16 16 32 32 32 32 39 39 42 35 29 10 10 16 6 3 3 6 3 3 3 3 3 3 3 3 3 6 3 10 13 19 68 77 84 84 81
19 19 23 32 35 29 23 19 19 26 23 19 19 32 39 26 35 23 16 6 10 10 6 3 6 0 0 0 3 6 3 3 3 6 0 0 3 3 10 16 65 84 81
19 19 29 32 35 26 23 26 26 23 23 16 23 32 29 29 26 19 13 13 10 3 3 3 6 3 0 0 3 6 6 0 0 3 0 3 3 3 3 0 13 35 65
23 29 32 32 29 29 32 32 29 29 26 26 26 26 32 32 26 16 19 10 10 3 0 0 6 6 3 3 3 0 0 0 0 0 0 0 0 0 3 3 3 6 16
35 39 35 32 29 35 39 35 39 32 23 16 13 23 26 26 32 19 13 16 13 3 3 3 3 3 0 0 3 0 0 0 0 0 0 0 0 0 3 3 6 6 10
35 35 35 26 26 32 45 32 29 23 19 19 23 13 16 19 23 23 16 16 10 10 6 3 3 0 0 3 0 0 0 0 0 0 0 0 3 3 3 13 10 10 6
35 29 29 26 26 29 32 32 32 32 26 23 16 16 19 19 19 16 16 16 10 6 10 6 6 10 6 6 3 3 0 0 0 0 0 0 0 3 0 0 6 10 3
35 32 26 29 32 29 39 39 35 32 26 16 16 13 16 13 13 13 13 10 10 10 10 10 13 3 3 6 6 3 3 0 0 0 0 0 0 0 0 0 0 3 6
35 32 29 29 29 29 29 35 32 29 26 23 16 16 16 13 10 10 16 13 13 13 6 3 6 3 3 3 3 3 3 3 0 0 0 0 3 0 0 0 0 0 0

GEFSSE_con_cape1000_198.txt.gz
Probability
13 35 90 94 97 97 94 94 97 94 94 94 94 94 90 90 90 90 90 87 90 87 87 87 90 87 87 84 87 84 84 84 77 77 81 74 74 84 84 81 61 35 68
16 52 94 97 97 97 97 100 100 100 94 97 97 97 97 94 90 90 87 84 87 90 94 90 87 87 87 87 90 84 84 84 87 81 81 71 81 87 81 55 65 55 55
23 48 74 100 100 100 100 100 100 100 100 100 100 100 100 100 94 94 87 87 87 84 87 90 90 84 84 84 87 84 87 84 87 87 77 48 45 65 71 65 61 61 61
32 52 77 100 100 100 100 100 100 100 100 100 100 100 97 97 94 90 94 87 94 94 90 90 87 84 84 90 87 87 87 74 74 71 42 23 29 58 65 71 65 55 61
39 68 94 100 100 100 97 97 97 100 100 100 100 100 97 97 97 94 97 97 97 94 90 94 90 90 84 81 84 81 71 65 61 35 32 39 55 61 65 61 58 61 55
32 52 94 100 100 97 97 97 97 100 97 100 100 100 100 97 94 94 97 97 97 94 87 84 90 87 87 81 84 68 68 52 52 23 32 29 39 68 58 52 55 48 55
23 55 77 100 100 97 100 100 100 97 100 100 100 100 100 100 100 97 100 97 94 87 87 87 90 84 90 87 84 74 55 32 19 23 32 35 45 65 55 52 52 52 52
23 48 87 97 97 100 100 100 100 100 100 100 100 100 100 100 100 100 94 97 94 87 90 87 84 81 81 87 77 68 45 26 10 10 26 29 61 74 55 58 61 61 55
29 55 74 81 97 97 97 100 100 100 100 100 100 100 100 100 100 100 100 90 90 94 87 87 81 81 77 77 74 58 52 45 16 26 13 32 68 71 58 55 65 61 52
29 45 71 68 84 90 94 97 100 100 97 97 100 100 97 90 90 97 100 94 90 84 84 81 81 71 74 77 74 55 52 32 6 16 29 42 77 65 55 55 52 52 48
39 52 48 61 77 87 77 87 94 94 90 94 97 97 97 81 68 87 94 94 90 87 74 71 74 74 65 58 58 58 42 23 19 26 32 48 65 55 55 55 52 52 52
58 52 45 55 74 74 61 87 84 84 90 94 90 87 90 90 77 61 87 77 84 77 77 71 65 58 52 39 45 35 32 23 23 29 52 74 65 55 48 48 55 48 48
42 45 48 68 84 74 74 71 77 77 87 81 74 77 90 87 68 65 84 81 84 71 65 58 45 35 26 29 26 26 29 19 16 19 48 68 71 65 65 58 58 58 42
35 48 48 61 81 87 81 77 81 74 77 74 87 74 74 81 74 68 84 61 74 74 77 55 61 32 32 29 32 23 26 32 35 29 74 55 68 71 55 61 55 55 52
45 48 61 81 84 94 94 90 77 81 77 74 94 84 81 61 74 71 81 74 61 61 55 77 58 52 45 29 26 26 29 29 35 35 39 58 61 71 65 61 61 55 52
45 55 74 87 87 94 94 97 94 84 94 84 84 84 84 84 77 74 81 81 68 61 55 61 58 77 71 55 32 35 35 35 45 48 45 55 55 65 65 61 61 61 58
61 55 74 77 87 94 94 90 81 84 87 94 90 90 97 87 87 87 71 81 71 61 77 74 65 61 61 55 48 45 35 42 45 52 52 52 61 65 71 71 74 68 58
65 74 77 42 77 94 97 97 84 84 84 94 90 90 94 90 90 87 81 61 71 61 68 74 65 65 55 58 55 52 48 58 55 58 52 65 65 52 71 74 74 77 71
81 84 87 84 81 90 94 94 87 90 90 87 90 87 90 94 87 84 90 81 81 71 65 52 65 61 61 65 42 61 42 48 48 35 55 48 58 65 74 81 74 81 74
90 90 90 94 87 94 90 90 90 87 87 87 87 84 84 90 87 94 87 87 74 77 77 68 77 77 71 81 32 39 55 55 55 42 52 39 55 52 52 71 77 77 81
94 90 87 87 87 94 90 87 87 81 81 77 84 81 81 84 77 84 65 81 84 84 74 58 68 68 77 74 65 58 42 39 55 61 55 48 39 48 48 68 77 81 81
94 87 87 87 84 84 90 90 84 84 84 81 84 84 77 71 77 68 77 71 77 71 77 81 81 71 58 55 52 48 29 29 68 16 42 58 48 48 58 52 68 81 77
90 90 84 87 84 87 87 87 77 84 74 74 84 81 65 61 61 71 77 81 77 77 74 77 77 65 74 61 52 55 39 26 29 29 26 26 39 48 48 52 52 65 65
87 87 87 84 84 81 81 74 71 74 74 71 71 61 61 61 68 65 61 71 74 61 77 58 58 61 71 61 58 65 42 35 35 23 23 23 32 45 39 26 26 52 61
81 87 84 87 84 84 81 74 74 71 71 68 68 71 68 68 68 55 61 71 71 71 65 65 65 71 74 65 55 45 45 52 32 42 26 26 19 19 26 29 26 32 48
71 81 84 84 84 84 84 77 84 77 74 71 71 68 71 65 68 55 61 71 71 68 71 71 61 61 65 61 55 39 35 29 35 35 13 23 29 26 19 32 26 29 29

GEFSSE_con_cape1000_204.txt.gz
Probability
35 65 94 94 94 94 94 94 94 90 90 87 90 87 87 81 81 87 84 84 90 90 90 87 84 84 84 81 77 68 71 71 71 77 77 77 77 74 74 68 68 35 81
42 77 94 97 97 97 97 90 90 97 94 94 90 90 90 87 81 81 84 84 90 84 84 84 87 87 84 77 77 77 74 74 71 74 74 61 68 74 77 71 65 52 74
45 77 90 100 100 97 100 100 100 97 94 94 94 94 90 87 87 87 87 87 87 87 84 87 87 84 81 81 77 77 71 74 81 77 74 23 39 71 71 65 55 65 68
48 71 90 100 97 97 97 97 97 97 94 90 87 90 87 90 90 87 87 87 94 87 84 84 84 81 77 81 74 77 68 58 71 68 48 16 23 52 61 61 58 65 55
68 94 97 100 97 97 97 97 97 97 97 90 90 87 84 87 90 90 90 94 90 87 87 81 81 81 74 65 65 58 55 48 61 58 39 35 42 58 58 52 58 61 52
68 77 97 97 97 94 94 94 97 97 97 97 94 97 97 97 94 90 90 94 94 87 84 87 77 77 68 58 52 52 48 55 55 42 39 35 35 71 61 55 52 45 42
55 74 94 97 94 94 97 97 97 97 97 97 97 97 97 97 94 94 90 94 90 87 84 87 84 68 58 58 45 45 58 74 42 35 42 45 45 81 65 55 48 45 42
42 61 94 97 100 97 97 97 97 97 97 97 97 97 97 97 90 90 84 90 90 90 90 81 71 77 68 55 48 52 58 65 45 32 35 29 58 77 61 52 48 52 48
32 58 84 90 100 100 100 100 97 97 100 97 97 94 94 94 90 97 94 84 81 81 87 68 65 74 68 48 45 48 74 81 29 32 19 29 71 81 55 58 58 55 55
42 58 68 81 90 90 90 100 97 97 97 100 94 94 94 94 94 94 97 97 87 84 81 71 65 61 55 52 65 58 77 68 32 23 19 35 87 68 61 48 55 45 45
42 52 55 65 81 81 74 71 90 94 97 100 100 97 97 87 77 87 94 97 90 87 81 68 61 58 58 55 68 74 65 26 23 29 35 61 74 65 61 58 45 42 35
48 39 55 61 68 71 74 90 90 81 97 100 100 100 97 97 87 71 87 97 87 87 77 74 74 68 52 35 52 71 45 35 26 32 35 77 77 68 68 68 52 39 39
45 45 48 61 84 84 90 87 100 100 100 100 94 94 90 90 87 81 87 84 90 84 81 71 77 48 42 42 65 52 42 26 23 23 39 77 77 65 65 61 55 42 39
55 42 48 65 77 90 90 90 97 94 100 94 94 90 90 97 97 97 97 90 87 90 94 87 94 68 65 55 55 45 29 35 42 42 45 81 77 68 61 61 61 55 48
68 65 74 90 97 97 100 100 97 97 97 94 97 94 97 100 97 90 97 97 94 90 87 94 87 81 71 71 52 45 39 42 42 52 42 71 74 74 68 61 58 58 55
65 71 81 87 97 97 97 97 100 97 94 97 94 97 97 97 100 90 94 94 90 84 87 87 84 87 77 81 68 65 52 52 55 65 45 45 71 77 71 61 55 58 61
74 81 87 94 94 97 94 94 94 97 84 87 90 94 97 94 94 94 97 94 87 81 90 87 87 84 77 81 77 68 68 71 74 74 58 55 48 71 81 77 71 61 61
84 90 97 77 94 97 97 94 94 97 97 90 90 94 97 94 94 94 87 84 84 84 90 87 87 94 90 90 84 84 81 77 84 81 77 77 61 39 52 81 81 84 74
90 97 97 90 97 90 97 94 94 97 97 97 94 94 90 97 94 94 94 90 87 84 87 81 81 94 87 90 90 81 81 81 77 58 71 71 71 71 48 55 87 84 81
90 94 94 90 90 90 97 94 97 94 94 94 90 90 90 87 87 90 90 94 84 81 81 77 84 87 81 77 42 55 74 71 71 71 61 58 65 58 48 39 42 52 74
94 94 94 94 94 94 94 94 94 87 87 87 81 84 77 87 87 87 81 81 84 77 74 74 77 74 81 84 68 58 68 55 65 61 65 71 52 55 48 61 48 48 39
94 97 94 94 94 94 97 90 90 94 90 84 84 77 77 74 77 71 77 68 74 68 65 71 77 74 74 68 65 48 52 52 55 26 65 55 48 52 45 48 55 61 58
94 94 94 94 97 97 94 90 87 90 81 81 87 81 81 74 77 81 77 71 71 68 65 68 74 71 61 71 58 52 42 26 26 39 45 42 48 58 55 52 48 55 48
97 97 97 97 97 97 97 94 87 84 84 84 81 77 81 74 71 71 74 77 77 71 71 71 65 65 65 58 55 65 52 55 42 35 32 32 39 52 42 29 35 39 42
90 94 97 97 97 97 97 90 90 84 81 81 81 81 77 74 71 71 71 74 77 77 71 68 71 68 68 58 58 55 55 48 42 26 26 26 26 39 39 42 39 42 35
94 94 94 97 97 97 94 90 90 90 84 81 81 77 77 74 74 74 74 74 74 74 74 74 71 71 68 65 58 58 48 48 29 32 26 29 19 26 35 32 35 32 29

GEFSSE_con_cape1000_210.txt.gz
Probability
61 84 94 90 90 90 87 87 87 84 84 87 90 94 90 90 87 87 90 87 87 84 81 81 77 74 77 84 84 77 77 77 77 81 77 77 77 81 81 77 65 45 74
77 90 94 97 94 94 94 90 90 90 90 90 90 90 94 94 90 87 87 87 90 94 87 81 71 77 81 81 81 81 81 77 81 77 77 77 74 87 87 74 58 42 77
84 90 97 100 100 94 94 90 94 94 94 90 90 94 94 90 90 90 90 87 87 84 87 84 77 77 77 74 74 71 74 71 77 74 58 35 61 84 84 84 74 71 71
77 87 97 100 100 97 97 94 94 94 90 90 90 90 94 94 90 90 90 90 87 87 90 84 77 77 81 77 71 74 77 77 65 52 13 16 16 81 84 77 71 68 68
87 90 100 100 100 100 100 97 97 97 97 97 94 94 94 94 94 90 90 90 87 84 84 81 77 77 81 81 77 74 71 65 58 23 6 6 19 77 68 68 65 65 65
90 97 100 100 100 100 100 100 97 97 97 97 97 97 94 94 97 94 97 90 87 87 87 84 84 74 71 71 74 71 65 58 32 10 10 10 23 77 65 65 55 61 61
81 94 97 100 100 100 100 100 100 100 100 97 97 100 100 97 97 94 94 87 87 87 84 81 74 68 71 65 61 58 61 45 16 0 6 10 23 84 74 65 55 58 58
87 94 94 100 100 100 100 100 100 100 100 100 100 97 97 97 97 90 87 87 87 87 87 84 74 65 61 65 58 65 58 45 13 6 3 10 45 84 65 61 58 55 52
81 87 87 94 97 97 100 100 100 100 100 100 100 100 100 100 97 90 90 90 81 81 74 65 55 58 71 68 71 71 77 61 13 0 3 23 68 81 65 65 55 58 45
58 68 71 77 77 84 90 100 100 97 100 100 100 100 97 87 84 94 94 94 87 87 84 61 58 52 71 74 74 81 74 45 10 0 3 26 74 77 71 65 58 58 45
26 45 58 55 58 68 77 94 94 94 97 100 100 100 87 48 55 74 87 90 84 77 77 81 74 68 74 71 77 74 55 19 3 0 3 39 81 74 77 71 61 45 45
19 29 35 45 48 42 58 68 65 74 68 71 45 52 42 29 29 45 84 84 84 81 71 74 77 65 55 23 26 45 26 6 0 3 16 61 81 77 77 68 65 61 52
13 23 35 48 35 29 35 45 42 42 32 26 35 32 23 29 19 35 29 48 55 65 48 52 55 39 23 13 3 6 3 3 0 3 13 77 77 81 74 71 61 65 61
26 32 39 35 32 32 35 39 39 29 32 19 19 19 23 16 13 13 13 16 16 16 13 13 13 13 10 3 3 3 3 0 0 3 3 74 87 84 77 68 65 52 55
29 32 39 42 35 35 35 32 32 39 39 29 26 23 26 16 13 13 13 10 6 3 3 3 6 6 6 3 3 3 3 0 0 6 3 71 81 84 77 77 68 65 48
23 39 42 45 48 39 39 29 35 35 26 23 19 32 32 16 13 6 19 16 10 10 10 6 3 3 6 6 3 6 6 6 3 3 0 29 77 74 77 74 74 71 68
29 45 42 42 42 55 45 45 45 42 29 26 19 26 29 23 16 16 16 13 19 16 10 6 13 10 3 6 3 10 6 3 0 3 3 3 19 65 77 77 77 74 71
39 35 35 48 48 45 52 45 42 32 29 26 23 19 23 32 23 13 19 13 13 13 13 6 3 3 3 3 3 3 3 0 0 3 3 3 3 13 52 74 74 74 65
32 32 23 39 35 42 45 42 42 32 19 26 35 29 23 32 29 19 19 16 13 13 6 13 6 6 3 3 3 3 3 0 0 0 0 3 3 3 3 29 65 65 61
26 26 35 32 42 45 45 48 48 35 32 32 35 35 32 26 26 16 13 19 23 16 6 10 10 10 10 10 6 3 0 0 0 0 0 0 0 0 3 3 13 45 52
42 29 32 32 35 48 48 42 42 39 39 32 29 29 26 26 26 19 19 23 19 19 16 13 13 10 10 6 3 0 3 0 0 0 0 0 0 0 0 3 3 3 10
48 35 35 29 42 42 45 42 45 48 45 39 32 26 26 23 26 26 19 23 19 19 13 10 10 6 3 3 3 3 0 0 0 0 0 0 0 0 0 0 3 3 0
48 48 45 39 52 58 55 52 45 42 45 35 32 23 29 32 29 26 23 19 19 16 13 10 10 6 6 3 3 3 0 0 0 0 0 0 0 0 0 3 0 0 0
55 52 48 55 58 61 61 55 48 48 39 29 32 26 26 26 23 26 26 23 23 23 16 13 10 10 3 0 0 0 0 0 0 0 0 0 0 0 0 3 0 0 0
55 58 52 52 55 58 65 58 45 45 35 32 35 35 23 19 23 23 26 26 23 23 16 10 10 6 3 0 10 0 0 0 0 3 3 3 3 0 0 0 0 0 0
58 68 68 68 61 61 71 68 58 48 35 35 32 29 19 19 23 29 39 29 26 26 19 10 10 13 10 10 3 6 6 3 3 3 3 3 3 0 0 0 0 0 3

GEFSSE_con_cape1000_216.txt.gz
Probability
19 61 87 87 87 90 90 87 84 84 84 84 84 84 84 84 84 84 87 84 81 81 81 74 71 84 87 77 71 71 71 77 77 74 71 74 71 71 68 65 48 35 68
42 74 87 87 90 94 94 87 90 94 90 87 90 87 87 84 87 87 87 84 81 81 77 71 77 84 87 77 74 74 74 77 74 81 74 68 68 71 65 61 45 45 61
68 74 87 94 94 94 94 90 90 94 94 94 90 90 94 94 94 90 90 90 74 77 71 74 74 77 77 74 77 74 74 68 71 65 65 45 65 65 61 61 68 61 55
74 71 90 94 94 94 94 90 90 90 94 94 94 97 94 94 97 94 90 84 81 77 71 74 77 90 77 71 65 71 74 71 55 48 13 26 42 65 68 65 68 61 65
71 81 94 94 90 94 94 94 90 90 90 90 94 97 97 94 90 90 87 87 87 84 77 74 77 81 71 71 71 74 71 55 48 19 10 13 42 77 74 74 65 61 58
77 81 97 100 90 90 94 94 90 90 87 90 87 90 90 90 97 90 90 90 90 87 81 84 81 77 74 68 68 68 61 52 23 13 10 16 39 77 74 61 68 61 55
81 87 97 100 100 90 90 90 90 87 87 90 90 87 90 90 90 84 87 90 87 84 81 81 81 74 74 68 65 61 55 39 10 6 10 13 26 81 71 68 58 58 52
74 74 90 97 97 100 97 94 94 94 90 87 90 90 90 90 90 94 87 84 87 87 74 65 68 71 61 71 65 52 52 29 10 0 10 23 42 74 68 61 61 52 55
58 65 71 77 84 97 97 100 97 94 94 97 90 90 90 87 81 87 90 81 84 87 74 65 71 61 58 61 65 55 48 35 3 0 6 23 52 74 61 68 58 55 48
52 48 58 68 71 74 77 97 100 97 97 97 100 90 81 77 77 81 90 87 84 77 74 68 65 55 58 65 71 61 55 32 6 0 10 23 52 65 58 65 61 58 55
42 45 42 48 52 61 68 81 77 87 87 81 81 94 65 39 39 68 84 84 74 77 77 74 61 58 61 65 68 68 48 23 10 10 6 29 45 55 55 55 48 61 55
29 32 29 32 42 45 58 58 48 52 45 39 29 29 19 19 23 42 61 81 81 77 71 84 74 65 42 29 29 39 19 6 13 13 13 42 48 65 61 65 58 48 45
6 19 19 19 23 26 26 26 32 26 26 26 19 13 6 6 10 23 19 39 42 42 35 42 48 39 32 16 10 3 3 3 6 6 16 45 68 68 71 61 58 52 45
0 16 19 23 19 16 13 16 10 13 13 13 10 10 3 0 3 3 3 6 10 19 16 23 16 16 16 16 10 3 3 3 3 6 10 32 68 65 65 65 58 52 52
0 6 13 13 13 6 3 3 10 6 10 6 6 3 3 3 3 3 3 3 6 6 6 10 10 10 10 10 10 6 3 3 3 6 3 32 55 71 68 68 61 58 52
6 13 6 16 10 3 3 3 6 6 3 3 3 3 6 3 3 3 3 3 3 3 3 0 0 3 6 6 6 6 6 3 0 10 10 29 48 77 74 68 65 61 52
10 3 6 19 16 6 6 3 10 3 3 3 3 6 6 3 3 3 3 3 6 3 3 0 0 3 3 3 3 3 13 10 6 6 10 10 26 42 68 68 71 71 65
6 6 10 23 16 10 3 6 6 6 3 3 3 6 6 6 6 3 3 6 6 3 3 3 3 3 3 3 3 3 10 10 6 6 3 6 6 10 32 65 68 68 58
0 3 6 10 13 10 6 3 3 3 3 3 3 6 10 6 6 6 6 6 3 3 3 3 3 3 3 3 3 3 3 6 0 0 0 0 6 3 10 16 45 55 55
3 6 6 6 13 13 10 13 10 13 10 10 10 13 13 6 6 6 6 10 3 3 3 3 3 3 3 3 6 6 0 0 0 0 0 0 0 0 0 6 19 23 39
6 6 6 6 13 13 16 13 16 19 13 13 6 13 13 6 10 6 3 10 6 6 3 6 6 6 3 3 3 3 0 0 0 0 0 0 0 0 0 0 3 13 13
3 6 10 6 13 19 23 19 19 13 16 13 16 13 13 10 6 10 3 6 3 6 6 10 6 3 3 3 3 0 0 0 0 0 3 0 0 0 0 0 0 3 6
6 10 16 10 13 23 19 19 23 23 16 13 13 13 16 13 19 23 6 6 3 3 6 6 6 3 3 3 3 0 0 0 0 0 3 3 3 3 3 3 3 3 0
6 16 16 10 10 16 19 19 19 19 23 16 13 13 13 13 16 19 16 13 10 10 10 10 6 6 3 6 3 0 0 0 0 3 3 0 3 3 0 0 3 0 0
19 16 16 10 13 13 19 19 16 13 16 16 13 10 10 10 10 10 13 10 10 10 6 6 6 6 3 6 6 3 3 0 0 3 3 3 3 3 0 0 0 0 0
23 23 10 6 13 13 16 19 16 19 13 13 16 13 10 10 10 10 10 6 3 6 6 6 10 10 6 6 3 3 3 3 3 3 3 3 3 0 0 0 0 0 0

GEFSSE_con_cape1000_222.txt.gz
Probability
19 32 68 74 77 77 84 84 84 87 87 81 77 81 77 74 84 84 84 81 74 74 71 71 74 74 81 81 77 81 77 77 77 68 71 71 68 65 71 65 55 39 65
23 32 71 74 74 87 84 81 84 84 87 81 81 84 81 71 81 77 81 77 74 71 68 65 61 68 71 71 74 71 77 74 68 68 65 61 58 61 42 39 61 52 65
35 42 58 81 84 87 90 90 94 90 87 84 84 84 84 81 84 77 81 81 74 77 68 68 61 71 68 71 74 71 77 81 71 65 61 26 39 48 48 52 68 68 71
35 42 55 84 87 90 90 90 94 94 90 87 84 81 81 81 87 81 77 84 81 74 65 65 68 58 65 61 71 61 68 65 58 48 19 16 16 45 65 65 58 61 61
35 55 74 94 84 87 87 87 90 94 87 87 84 84 74 81 81 84 77 84 77 74 58 58 65 65 61 61 65 61 61 58 39 26 10 26 42 61 58 61 55 58 65
39 52 71 90 87 87 87 87 87 81 90 84 81 84 84 77 77 84 87 87 81 74 68 58 55 61 68 61 68 65 58 39 29 13 13 16 35 61 58 58 55 61 58
29 39 58 87 90 87 87 84 87 81 84 84 81 84 84 84 81 87 81 87 81 74 68 61 61 61 65 65 65 58 45 42 16 13 19 23 45 71 55 52 42 52 42
29 35 68 87 94 84 84 84 84 81 77 81 77 81 84 87 84 84 87 81 77 71 68 65 55 55 58 61 55 39 42 23 6 3 19 29 61 74 45 45 48 42 42
13 29 45 52 74 84 87 84 84 84 84 84 81 81 77 84 84 81 84 77 81 71 68 65 71 58 45 39 39 42 42 39 16 3 3 35 55 65 65 61 45 39 42
10 26 42 48 58 48 71 81 84 81 87 90 84 84 65 74 74 84 81 84 71 74 68 61 52 48 32 42 42 29 29 26 10 10 13 29 61 58 55 55 48 52 52
16 23 32 26 52 45 35 58 74 81 81 90 87 74 71 68 48 58 61 71 61 65 61 58 39 29 32 45 42 39 23 16 3 13 29 48 55 55 52 52 55 61 58
23 26 29 42 45 48 29 68 71 55 84 81 74 61 58 71 58 32 61 71 65 61 55 55 42 39 26 26 42 39 23 6 3 10 23 45 45 55 55 52 48 55 61
16 16 29 45 58 45 52 52 58 58 81 77 77 65 74 52 48 39 45 55 61 52 39 45 32 35 16 32 23 13 13 13 10 3 23 45 52 45 52 48 45 42 55
23 32 35 48 65 68 61 55 61 55 68 42 81 65 71 58 58 45 58 39 42 48 55 39 48 35 32 32 29 16 16 23 19 23 45 52 58 52 42 42 42 42 45
29 26 42 58 74 87 87 77 68 81 61 58 81 68 68 58 55 42 65 55 48 45 45 45 39 35 35 42 23 26 29 23 26 23 39 55 55 55 52 45 42 45 48
29 39 42 71 77 90 90 81 74 68 84 61 71 68 71 68 68 68 65 74 61 61 42 45 45 42 42 39 35 32 32 35 42 45 39 48 52 48 52 52 42 39 48
55 58 65 65 71 77 77 71 61 68 58 71 74 81 77 68 74 68 65 65 58 58 58 61 58 55 55 42 42 42 48 42 39 48 39 45 55 45 45 48 61 58 48
58 68 71 48 68 74 81 81 65 55 65 65 68 77 68 74 65 74 65 55 58 48 52 55 52 45 45 39 42 45 45 48 39 52 48 52 39 39 48 42 48 55 48
68 77 74 74 71 68 84 84 71 74 71 65 61 68 74 68 65 61 61 65 55 52 58 45 48 58 48 52 39 48 42 45 45 35 39 32 29 32 42 39 39 48 48
74 90 87 84 81 84 87 84 87 77 68 65 65 68 71 77 71 65 58 58 48 45 58 68 65 68 61 65 29 42 52 35 42 29 32 29 29 29 32 32 45 42 32
81 84 90 84 84 87 77 81 71 65 65 61 65 65 61 61 65 71 55 58 58 65 71 61 61 55 58 58 52 45 29 19 23 39 32 35 16 26 32 32 29 35 42
81 84 87 90 84 84 84 84 77 71 61 58 58 65 61 58 61 52 71 55 58 81 71 71 81 65 52 52 55 32 26 35 26 6 26 32 29 29 29 19 32 39 23
77 77 77 94 90 87 87 74 71 71 65 61 58 68 65 65 55 68 68 58 65 55 74 74 71 68 58 52 45 42 26 39 29 19 19 16 23 26 26 23 26 26 19
74 71 84 87 90 87 87 74 74 71 58 58 68 61 65 65 58 55 55 52 68 55 71 68 61 68 71 58 52 42 23 29 29 23 26 23 23 23 19 13 6 23 23
65 74 77 87 87 84 87 87 84 68 68 61 58 58 65 58 48 45 52 61 65 61 71 71 71 71 58 55 58 55 42 45 29 32 23 26 23 23 23 23 23 29 26
65 74 74 84 87 81 81 84 84 81 71 61 61 55 55 52 45 48 48 58 61 61 61 65 65 65 61 68 58 52 55 45 45 45 26 29 29 19 19 19 16 19 19

GEFSSE_con_cape1000_228.txt.gz
Probability
10 39 71 74 81 81 77 77 77 81 77 71 77 90 81 74 71 71 65 71 65 68 65 68 71 65 71 77 77 77 77 74 65 55 61 58 58 65 74 65 58 45 58
13 42 77 77 81 84 81 77 77 81 77 81 81 77 77 81 71 71 74 65 68 71 71 61 68 65 71 74 71 68 68 68 74 65 58 58 58 61 68 58 61 45 61
23 39 68 81 81 81 81 84 81 81 81 81 81 71 74 77 74 61 71 74 61 77 68 71 68 71 71 77 68 61 68 65 68 74 65 19 23 48 68 65 65 71 68
26 35 68 87 84 81 81 84 77 81 81 81 84 74 74 77 74 68 71 71 61 65 61 68 55 61 65 68 65 61 55 58 58 52 39 10 10 42 52 58 61 61 58
45 58 74 90 87 87 84 90 84 84 84 77 77 71 74 77 68 71 71 71 65 55 58 61 55 58 71 58 52 48 39 35 55 45 32 13 26 52 45 45 52 48 45
48 45 74 90 87 87 87 84 81 81 77 81 81 74 77 84 74 68 68 58 58 55 52 42 52 42 55 55 48 42 35 32 48 42 32 29 29 68 45 39 39 48 55
35 35 65 84 90 90 87 84 81 74 74 77 71 68 65 71 74 68 61 65 61 58 48 42 55 52 48 45 32 35 42 39 39 32 29 39 48 77 55 45 48 39 48
35 45 65 90 90 90 87 87 77 74 74 74 68 74 61 61 68 65 65 58 55 48 45 48 45 45 45 35 39 35 48 55 32 19 32 35 68 74 61 48 45 42 45
35 39 48 61 71 84 87 84 81 74 68 74 71 68 65 65 71 68 68 68 61 55 45 48 55 48 35 32 35 32 42 65 26 29 13 26 74 71 52 35 42 39 42
26 39 52 48 58 58 68 81 87 77 77 68 68 71 68 77 77 77 71 74 71 61 52 58 42 35 35 29 23 35 55 48 19 16 16 16 81 68 55 45 39 32 35
29 35 45 42 58 45 32 68 81 74 74 65 71 61 74 74 55 68 61 71 58 55 48 39 29 42 48 45 48 55 45 16 3 10 13 42 71 55 48 48 35 42 39
19 23 39 39 45 52 48 81 71 61 81 87 77 84 81 77 77 48 61 77 65 52 42 45 48 52 48 26 35 58 32 10 3 16 26 65 71 55 52 48 48 45 48
26 26 35 45 58 48 71 77 84 87 87 74 77 81 87 84 68 58 55 68 68 68 48 48 45 35 32 48 48 42 29 13 13 10 29 68 71 58 52 52 48 45 48
39 29 29 48 81 90 90 94 90 81 84 74 90 90 87 90 94 90 81 74 77 71 77 61 68 58 55 55 52 52 35 23 19 29 32 71 68 65 61 52 42 52 48
45 45 68 90 97 94 97 97 97 90 81 81 87 87 90 90 94 87 81 81 65 77 74 77 68 65 65 58 45 48 42 42 42 26 32 58 71 71 68 55 48 45 58
45 58 65 81 97 94 90 94 97 84 94 90 90 81 81 90 90 81 81 84 84 84 84 84 65 68 71 74 55 65 42 42 52 48 29 39 65 68 71 55 45 42 52
52 61 77 81 90 90 90 81 84 87 87 90 90 81 81 84 84 84 81 84 77 74 77 77 74 71 68 65 68 68 65 52 45 55 48 35 39 55 65 58 61 55 45
68 81 81 48 84 87 97 90 87 84 87 87 84 81 74 77 74 87 87 71 81 71 74 84 81 81 74 65 68 61 65 68 55 55 55 52 39 13 26 48 55 52 48
81 90 90 84 87 87 84 87 90 90 87 84 84 90 77 74 68 77 87 84 81 71 74 68 74 71 71 65 58 65 65 61 61 39 48 45 45 42 26 23 45 45 45
87 94 94 94 94 94 94 90 87 87 84 81 87 87 84 77 68 71 84 77 65 65 74 81 71 74 68 65 35 55 61 55 58 48 39 39 29 29 26 13 26 23 29
90 94 94 94 94 94 94 94 90 87 87 77 81 81 74 77 71 81 71 77 74 74 84 65 71 71 61 61 55 61 52 42 42 42 45 42 23 26 29 26 23 26 16
90 94 97 94 94 94 94 90 87 87 81 77 77 77 71 68 68 65 81 74 74 87 81 81 77 77 68 68 68 55 42 39 42 29 35 32 29 35 29 26 26 26 13
94 97 94 94 94 94 90 90 90 90 87 77 77 77 68 68 68 71 74 81 77 84 81 81 81 77 68 74 74 65 52 29 29 39 26 26 26 29 26 26 26 26 19
90 97 94 97 94 94 94 90 87 84 81 77 77 77 71 68 68 71 74 74 81 81 81 74 81 81 74 74 74 71 65 58 35 23 32 23 26 26 19 16 23 19 16
81 90 94 97 94 94 90 90 90 87 84 81 74 71 71 71 61 61 65 74 71 74 81 77 81 77 74 74 68 68 58 58 52 32 23 23 23 23 26 23 19 16 16
74 84 87 94 94 97 94 94 94 90 84 77 71 71 71 68 68 68 68 71 71 71 74 77 74 74 74 68 71 71 61 55 52 32 26 16 23 13 16 19 19 16 13

GEFSSE_con_cape1000_234.txt.gz
Probability
29 58 68 87 87 81 81 81 87 84 84 87 87 84 81 81 84 77 71 74 77 74 74 68 68 68 77 77 71 61 65 68 65 61 58 55 58 58 65 61 52 39 65
45 55 68 84 87 77 74 77 87 87 87 87 81 84 87 77 74 74 71 71 74 68 77 81 81 71 74 74 68 68 65 61 65 65 61 55 58 65 65 58 55 39 68
42 55 68 87 87 81 74 84 87 87 84 84 81 74 81 87 81 74 74 68 71 65 65 81 74 74 71 68 65 65 61 65 65 61 45 16 42 61 61 58 61 65 68
35 45 65 90 87 84 84 84 84 87 81 87 87 81 84 87 77 74 77 77 71 68 74 68 68 77 71 65 65 65 58 55 58 35 6 13 13 61 61 61 65 61 65
35 58 77 87 87 87 84 90 90 87 87 90 87 81 84 81 74 77 77 68 68 68 68 68 68 71 68 68 65 65 55 55 48 13 0 3 10 65 68 68 65 61 55
42 61 81 90 87 87 87 90 87 87 87 84 84 81 71 71 84 74 71 68 65 65 61 61 61 65 48 45 42 45 45 48 29 6 0 0 13 74 61 58 58 58 52
39 61 77 90 90 90 90 87 87 87 87 81 81 77 77 74 77 71 68 65 55 58 55 58 52 45 35 35 39 45 48 48 13 3 3 0 13 65 58 58 58 52 52
39 61 71 94 87 90 90 87 87 87 81 81 77 77 74 74 74 74 65 65 61 58 55 52 48 42 35 42 45 42 42 32 6 3 0 3 39 68 58 52 58 61 52
35 55 65 68 74 90 90 94 87 87 81 77 84 84 74 71 74 65 71 65 58 55 52 48 42 39 35 39 42 39 55 48 10 6 3 6 71 68 58 61 58 55 42
29 35 48 52 52 65 68 87 87 87 81 84 81 77 74 74 74 68 74 71 55 52 55 45 35 42 42 45 48 48 52 32 10 0 0 10 71 65 55 52 58 45 39
16 26 32 35 32 35 39 65 74 84 77 74 71 81 65 35 32 48 58 74 58 55 48 52 58 58 52 48 52 58 52 10 0 0 0 32 71 65 61 48 58 48 42
3 6 13 29 23 16 29 29 32 35 35 26 23 26 23 10 10 29 48 68 68 55 45 58 65 58 42 10 16 29 10 0 0 0 6 55 71 65 61 65 61 55 45
10 6 10 19 16 10 10 19 16 13 16 19 23 19 13 6 6 10 10 39 39 45 26 35 39 26 19 0 0 0 0 0 0 0 6 58 71 61 61 65 58 58 55
3 3 16 16 19 13 6 13 10 16 16 19 19 19 13 10 6 6 3 6 6 3 0 3 6 13 6 0 0 0 0 0 0 0 6 48 58 68 55 52 61 61 58
10 13 26 26 23 13 13 19 19 13 29 26 13 13 6 0 0 3 3 3 0 0 0 3 3 3 0 0 0 0 0 0 0 0 3 58 74 74 71 65 55 55 52
16 26 29 26 16 16 19 19 13 19 10 13 3 16 16 6 3 3 3 3 3 0 3 6 6 6 3 3 0 0 0 0 0 0 3 26 65 71 68 55 61 61 55
23 26 32 32 26 23 23 23 23 26 16 10 6 6 16 6 0 3 6 6 10 6 6 6 0 0 6 10 3 3 3 3 3 3 3 6 16 52 58 58 61 58 52
23 32 35 45 39 32 32 35 39 29 29 19 16 13 23 10 6 10 16 10 10 10 10 6 6 6 6 6 3 3 6 3 6 3 3 3 3 10 29 55 61 61 58
10 23 32 35 32 35 35 32 29 32 26 16 16 19 16 29 23 19 10 13 13 6 3 6 6 6 6 6 10 10 3 3 3 6 3 3 3 3 3 13 39 42 42
19 26 29 29 35 42 42 32 26 23 26 26 16 23 19 29 23 10 6 6 16 6 10 13 10 10 10 13 16 10 3 3 3 0 0 0 3 3 3 3 13 19 35
32 29 26 32 39 42 35 32 26 26 29 23 26 35 29 26 26 13 19 13 13 16 10 13 10 10 13 10 3 3 3 0 0 0 0 0 0 3 3 3 3 3 3
35 32 32 48 42 45 35 32 29 32 39 29 29 29 29 23 23 32 19 16 16 19 16 10 10 6 10 6 3 3 3 3 0 0 0 0 0 0 3 3 3 3 3
39 42 45 52 39 45 45 35 39 29 23 23 26 26 29 29 29 23 16 19 16 19 13 16 16 10 6 3 3 3 3 3 0 0 0 0 0 0 0 6 3 3 3
45 52 52 55 45 52 42 39 35 29 29 32 23 29 16 19 26 19 16 19 19 16 16 19 13 10 6 6 6 3 3 3 3 0 0 0 0 0 0 0 0 3 0
45 48 55 52 58 48 45 42 42 42 35 32 32 29 26 23 26 32 23 26 19 16 16 13 16 6 6 6 6 6 3 3 0 0 0 0 0 0 0 0 0 0 3
52 48 55 55 55 55 48 42 45 45 42 32 29 32 29 26 29 29 29 16 19 19 13 13 10 13 6 6 6 3 0 0 0 0 0 0 0 0 0 0 0 0 0